[[{"header":{"parameterUnit":"m.s-1","parameterCategory":1,"la1":30.2991,"la2":30.254,"lo1":-89.0895,"lo2":-89.0444,"dy":0.0017,"dx":0.0017,"nx":28,"ny":28,"refTime":"2023-08-28T03:00:00:Z","depth":0,"parameterNumber":2,"parameterNumberName":"U-component_of_WINDS"},"data":[0,0,0,0,0,0,0,0,0,0,0,0,0,0,0,0,0,0,0,0,0,0,0,0,0,0,0,0,0,0,0,0,0,0,0,0,0,0,0,0,0,0,0,0,0,0,0,0,0,0,0,0,0,0,0,0,0,0,-5.9832,-5.9832,0,-5.9828,-5.9828,-5.9828,-5.9865,-5.9866,-5.9867,-5.9868,-5.9857,-5.9856,-5.9855,0,0,0,0,0,0,0,0,0,0,0,0,0,-5.9862,-5.9862,-5.9832,-5.9832,-5.9832,-5.9828,-5.9828,-5.9828,-5.9864,-5.9866,-5.9867,-5.9868,-5.9858,-5.9856,-5.9855,0,0,0,0,0,0,0,0,0,0,0,0,0,-5.9853,-5.9862,-5.9832,-5.985,-5.9852,-5.9828,-5.9828,-5.9828,-5.9864,-5.9866,-5.9867,-5.9869,-5.9858,-5.9856,-5.9854,-5.9812,0,0,-5.9849,-5.9848,0,0,0,0,0,0,0,0,-5.9853,-5.9852,-5.9848,-5.9849,-5.9851,-5.9849,-5.9835,-5.9823,-5.9864,-5.9859,-5.9868,-5.9869,-5.9853,-5.9851,-5.9847,-5.9812,-5.9811,-5.9849,-5.9847,-5.9847,-5.9846,0,0,0,0,0,0,0,-5.9854,-5.9852,-5.9831,-5.9847,-5.9849,-5.9855,-5.9856,-5.9833,-5.9847,-5.986,-5.9862,-5.9862,-5.9854,-5.9849,-5.9847,-5.9811,-5.9849,-5.9847,-5.9846,-5.9845,-5.9733,-5.9731,0,0,0,0,0,0,-5.9853,-5.9852,-5.9831,-5.9831,-5.9856,-5.9853,-5.9854,-5.9848,-5.9848,-5.9849,-5.986,-5.9863,-5.9851,-5.9849,-5.9847,-5.9792,-5.9847,-5.9845,-5.9844,-5.9735,-5.9733,-5.9731,0,0,0,0,0,0,-5.9854,-5.9851,-5.9831,-5.9842,-5.984,-5.9851,-5.9844,-5.9847,-5.9842,-5.9848,-5.985,-5.9853,-5.9852,-5.9849,-5.9819,-5.9792,-5.9844,-5.9842,-5.9737,-5.9734,-5.9732,-5.9685,0,0,0,0,0,0,-5.9855,-5.9851,-5.9838,-5.9842,-5.9839,-5.9806,-5.9843,-5.9846,-5.9839,-5.9843,-5.9842,-5.9843,-5.9853,-5.9822,-5.9817,-5.9791,-5.9841,-5.974,-5.9736,-5.9733,-5.9689,-5.9681,-5.9675,0,0,0,0,0,-5.9856,-5.9825,-5.9837,-5.9834,-5.9823,-5.9805,-5.9803,-5.9817,-5.9837,-5.9821,-5.9825,-5.9843,-5.9797,-5.9819,-5.9814,-5.9786,-5.9741,-5.9737,-5.9733,-5.9693,-5.9683,-5.9675,0,0,0,0,0,0,-5.9816,-5.9826,-5.9839,-5.981,-5.9806,-5.9811,-5.9792,-5.9808,-5.9797,-5.9801,-5.9817,-5.9816,-5.9782,-5.9782,-5.9806,-5.9742,-5.9772,-5.9767,-5.9743,-5.9734,-5.9727,-5.9725,-5.9839,0,0,0,0,0,-5.9804,-5.9791,-5.98,-5.9772,-5.977,-5.9781,-5.9774,-5.9785,-5.9781,-5.9779,-5.9781,-5.9774,-5.9757,-5.9746,-5.9732,-5.969,-5.9687,-5.9668,-5.9661,-5.9655,-5.9649,-5.962,-5.961,-5.9717,-5.9717,-5.9717,0,0,-5.9779,-5.9783,-5.9773,-5.9764,-5.9763,-5.9745,-5.978,-5.9761,-5.9746,-5.9776,-5.9747,-5.9747,-5.974,-5.9702,-5.9686,-5.9701,-5.9619,-5.965,-5.9645,-5.9642,-5.9614,-5.9604,-5.9595,-5.9714,-5.9715,-5.9715,0,0,-5.9723,-5.9727,-5.9702,-5.97,-5.9697,-5.9704,-5.9698,-5.97,-5.9701,-5.9673,-5.9692,-5.9674,-5.9647,-5.964,-5.9632,-5.9569,-5.9583,-5.9564,-5.9524,-5.9495,-5.9487,-5.9479,-5.945,-5.9441,-5.9558,-5.9558,-5.9558,0,-5.9691,-5.9668,-5.9687,-5.9665,-5.9658,-5.9685,-5.9657,-5.9653,-5.9645,-5.9637,-5.9656,-5.9618,-5.9616,-5.9573,-5.9557,-5.9553,-5.9541,-5.9563,-5.9487,-5.948,-5.9473,-5.9445,-5.9435,-5.9556,-5.9556,-5.9556,-5.9556,0,-5.9626,-5.9609,-5.9589,-5.9581,-5.9572,-5.9547,-5.9558,-5.9546,-5.9557,-5.956,-5.9527,-5.9525,-5.9508,-5.95,-5.9511,-5.9457,-5.9465,-5.9485,-5.9515,-5.9459,-5.9433,-5.9424,-5.9552,-5.9553,-5.9553,-5.9554,0,0,-5.9546,-5.9546,-5.9538,-5.9532,-5.953,-5.9515,-5.949,-5.9474,-5.946,-5.9453,-5.9428,-5.9402,-5.9419,-5.941,-5.942,-5.9396,-5.9337,-5.9417,-5.9417,-5.9397,-5.927,-5.9251,-5.924,-5.9348,-5.9346,-5.9345,-5.9268,0,-5.9487,-5.9445,-5.9459,-5.9415,-5.9396,-5.9419,-5.9396,-5.9389,-5.9391,-5.9372,-5.9374,-5.9353,-5.938,-5.9373,-5.9351,-5.9349,-5.9311,-5.9356,-5.9319,-5.9317,-5.9315,-5.9227,-5.9209,-5.9137,-5.9259,-5.9258,-5.9256,0,-5.9414,-5.9403,-5.9357,-5.9353,-5.9345,-5.9325,-5.9308,-5.9292,-5.9283,-5.9285,-5.9273,-5.9286,-5.9255,-5.9288,-5.9242,-5.9272,-5.9257,-5.9254,-5.9251,-5.9245,-5.928,-5.9213,-5.9116,-5.9102,-5.9242,-5.9243,-5.9244,0,-5.9352,-5.9327,-5.9295,-5.929,-5.9286,-5.9269,-5.9266,-5.9259,-5.9247,-5.9232,-5.9222,-5.9204,-5.9192,-5.9175,-5.918,-5.9204,-5.913,-5.9165,-5.9126,-5.9125,-5.9106,-5.9106,-5.9,-5.9105,-5.9106,-5.9106,-5.9106,0,-5.9283,-5.9252,-5.9267,-5.9246,-5.921,-5.9225,-5.9188,-5.9188,-5.918,-5.9156,-5.9176,-5.9152,-5.9163,-5.9138,-5.9142,-5.9099,-5.9095,-5.9092,-5.9092,-5.9087,-5.9087,-5.9075,-5.9078,-5.9103,-5.9104,-5.9104,-5.9105,0,-5.9208,-5.9217,-5.9182,-5.9181,-5.9179,-5.9152,-5.9149,-5.9127,-5.913,-5.9099,-5.9092,-5.9095,-5.9066,-5.9071,-5.904,-5.9041,-5.8986,-5.8995,-5.8989,-5.8989,-5.8948,-5.8949,-5.8826,-5.8807,-5.893,-5.8929,-5.8928,0,-5.9161,-5.9138,-5.9133,-5.9119,-5.9115,-5.9093,-5.908,-5.9092,-5.9077,-5.9062,-5.904,-5.9014,-5.8993,-5.8946,-5.8942,-5.8916,-5.8921,-5.888,-5.8917,-5.8911,-5.8913,-5.8912,-5.8906,-5.8871,-5.8869,-5.8868,-5.8867,0,-5.9075,-5.9079,-5.9062,-5.9044,-5.9028,-5.9014,-5.9001,-5.8988,-5.8998,-5.8979,-5.8951,-5.8935,-5.8901,-5.8872,-5.8847,-5.8839,-5.8851,-5.8856,-5.8844,-5.8836,-5.8831,-5.8827,-5.8963,-5.8858,-5.8859,-5.8859,-5.886,-5.886,-5.9009,-5.8987,-5.8979,-5.8956,-5.8948,-5.8935,-5.8912,-5.8912,-5.8889,-5.8864,-5.8872,-5.8838,-5.8823,-5.879,-5.8779,-5.8749,-5.8764,-5.8749,-5.8744,-5.8739,-5.8731,-5.884,-5.8745,-5.8746,-5.8746,-5.8746,-5.8746,0,-5.8918,-5.8914,-5.8893,-5.8875,-5.8855,-5.8873,-5.8858,-5.8839,-5.881,-5.8797,-5.8775,-5.8738,-5.8709,-5.8702,-5.8672,-5.8649,-5.8653,-5.864,-5.8639,-5.8635,-5.8723,-5.8733,-5.8636,-5.8637,-5.8637,-5.8637,-5.8637,-5.8637,-5.8869,-5.8831,-5.8833,-5.8789,-5.8784,-5.8752,-5.8741,-5.8726,-5.8715,-5.8674,-5.865,-5.8647,-5.8633,-5.8602,-5.8573,-5.8572,-5.8557,-5.854,-5.8539,-5.862,-5.8631,-5.8641,-5.865,-5.8538,-5.8538,-5.8454,-5.8453,-5.8452]},{"header":{"parameterUnit":"m.s-1","parameterCategory":1,"la1":30.2991,"la2":30.254,"lo1":-89.0895,"lo2":-89.0444,"dy":0.0017,"dx":0.0017,"nx":28,"ny":28,"refTime":"2023-08-28T03:00:00:Z","depth":0,"parameterNumber":3,"parameterNumberName":"V-component_of_WINDS"},"data":[0,0,0,0,0,0,0,0,0,0,0,0,0,0,0,0,0,0,0,0,0,0,0,0,0,0,0,0,0,0,0,0,0,0,0,0,0,0,0,0,0,0,0,0,0,0,0,0,0,0,0,0,0,0,0,0,0,0,-4.3568,-4.3572,0,-4.3914,-4.3918,-4.3921,-4.3947,-4.3943,-4.3939,-4.3936,-4.4295,-4.4308,-4.4321,0,0,0,0,0,0,0,0,0,0,0,0,0,-4.2936,-4.2948,-4.3567,-4.3572,-4.3576,-4.3913,-4.3918,-4.3922,-4.3948,-4.3943,-4.3938,-4.3934,-4.4291,-4.4306,-4.4322,0,0,0,0,0,0,0,0,0,0,0,0,0,-4.3239,-4.2952,-4.3567,-4.3629,-4.3638,-4.3912,-4.3918,-4.3924,-4.3949,-4.3943,-4.3937,-4.3932,-4.4286,-4.4305,-4.4324,-4.4561,0,0,-4.4385,-4.4393,0,0,0,0,0,0,0,0,-4.3222,-4.3262,-4.3616,-4.3625,-4.3636,-4.3881,-4.3827,-4.4138,-4.395,-4.3831,-4.3936,-4.3929,-4.4163,-4.4192,-4.427,-4.4578,-4.4593,-4.4386,-4.4398,-4.4407,-4.4412,0,0,0,0,0,0,0,-4.3201,-4.3248,-4.3705,-4.3621,-4.3633,-4.3643,-4.3679,-4.3886,-4.4025,-4.3841,-4.3844,-4.3884,-4.4167,-4.4251,-4.4278,-4.4599,-4.4386,-4.4403,-4.4415,-4.4423,-4.512,-4.5126,0,0,0,0,0,0,-4.3167,-4.323,-4.3694,-4.3715,-4.3411,-4.3658,-4.37,-4.3808,-4.4023,-4.405,-4.3888,-4.3884,-4.422,-4.4255,-4.4291,-4.4581,-4.4407,-4.4425,-4.4436,-4.5113,-4.5121,-4.5128,0,0,0,0,0,0,-4.3154,-4.3208,-4.368,-4.3474,-4.3534,-4.3675,-4.3798,-4.3818,-4.3902,-4.4059,-4.4084,-4.3948,-4.4217,-4.4263,-4.4494,-4.4594,-4.4434,-4.4452,-4.5105,-4.5115,-4.5125,-4.5164,0,0,0,0,0,0,-4.3135,-4.3203,-4.3292,-4.3475,-4.3545,-4.3874,-4.3804,-4.3829,-4.3935,-4.3932,-4.4121,-4.4147,-4.4216,-4.4464,-4.4513,-4.4618,-4.4467,-4.5097,-4.511,-4.5121,-4.5154,-4.5174,-4.5191,0,0,0,0,0,-4.3113,-4.3291,-4.3297,-4.3353,-4.3659,-4.388,-4.392,-4.3994,-4.3943,-4.4035,-4.4136,-4.4141,-4.4576,-4.4487,-4.4543,-4.4655,-4.509,-4.5106,-4.5121,-4.5146,-4.517,-4.519,0,0,0,0,0,0,-4.3117,-4.3316,-4.3324,-4.3567,-4.3706,-4.3884,-4.4001,-4.4017,-4.4175,-4.4166,-4.4254,-4.4296,-4.4523,-4.4614,-4.4511,-4.4897,-4.4828,-4.4855,-4.4828,-4.4853,-4.4871,-4.4842,-4.4484,0,0,0,0,0,-4.3146,-4.3307,-4.3473,-4.367,-4.374,-4.3859,-4.3958,-4.4003,-4.4152,-4.4211,-4.4329,-4.4475,-4.4645,-4.4754,-4.4919,-4.5169,-4.521,-4.5274,-4.5293,-4.5307,-4.5328,-4.5466,-4.5496,-4.5178,-4.5177,-4.5177,0,0,-4.3208,-4.3336,-4.3432,-4.3675,-4.3788,-4.3954,-4.3908,-4.4086,-4.421,-4.4239,-4.4462,-4.4555,-4.4723,-4.4964,-4.5076,-4.5046,-4.5426,-4.5326,-4.5336,-4.535,-4.5485,-4.5515,-4.5542,-4.5188,-4.5186,-4.5184,0,0,-4.3404,-4.3517,-4.3694,-4.3809,-4.3981,-4.406,-4.4103,-4.4279,-4.4341,-4.4567,-4.4592,-4.4743,-4.5034,-4.5152,-4.5251,-4.5496,-4.5506,-4.5549,-4.5643,-4.5777,-4.5802,-4.5824,-4.591,-4.594,-4.557,-4.557,-4.557,0,-4.3458,-4.3707,-4.3784,-4.3961,-4.4067,-4.4101,-4.4282,-4.439,-4.4608,-4.4682,-4.4645,-4.5011,-4.5127,-4.5396,-4.5455,-4.5535,-4.5587,-4.5525,-4.5792,-4.5815,-4.5838,-4.592,-4.5952,-4.5574,-4.5573,-4.5573,-4.5572,0,-4.3766,-4.3939,-4.4062,-4.4269,-4.4391,-4.4569,-4.4674,-4.4788,-4.4825,-4.4908,-4.5138,-4.5279,-4.5473,-4.5541,-4.5579,-4.5817,-4.5792,-4.5773,-4.5705,-4.587,-4.5949,-4.5982,-4.5579,-4.5578,-4.5576,-4.5576,0,0,-4.3969,-4.4219,-4.4263,-4.4358,-4.4552,-4.4688,-4.487,-4.5058,-4.5154,-4.5305,-4.5459,-4.5706,-4.5689,-4.5801,-4.5854,-4.5972,-4.6156,-4.5939,-4.5944,-4.5972,-4.6424,-4.6434,-4.647,-4.6165,-4.6172,-4.6177,-4.6409,0,-4.4185,-4.4505,-4.4581,-4.4857,-4.5018,-4.5055,-4.5213,-4.535,-4.5434,-4.5585,-4.5679,-4.5851,-4.5818,-4.5886,-4.6005,-4.6107,-4.6247,-4.6093,-4.6309,-4.6315,-4.6261,-4.6511,-4.6523,-4.6735,-4.6441,-4.6446,-4.645,0,-4.4478,-4.4633,-4.4924,-4.5099,-4.5169,-4.531,-4.5489,-4.5633,-4.5791,-4.5844,-4.597,-4.6011,-4.6203,-4.6129,-4.6395,-4.6288,-4.6382,-4.6447,-4.6457,-4.6477,-4.6389,-4.6535,-4.6805,-4.6835,-4.65,-4.6496,-4.6492,0,-4.4594,-4.4877,-4.5088,-4.5169,-4.5378,-4.5476,-4.5568,-4.572,-4.5829,-4.5988,-4.6059,-4.6239,-4.6337,-4.6475,-4.6564,-4.6502,-4.6823,-4.6756,-4.6872,-4.6869,-4.6934,-4.6927,-4.7218,-4.7001,-4.7,-4.6999,-4.6999,0,-4.4824,-4.5,-4.5143,-4.5271,-4.5471,-4.5559,-4.5754,-4.5848,-4.5983,-4.6132,-4.6178,-4.6317,-4.6428,-4.6583,-4.6655,-4.6863,-4.6908,-4.6956,-4.6972,-4.695,-4.6943,-4.7009,-4.6996,-4.7008,-4.7006,-4.7004,-4.7003,0,-4.4985,-4.5088,-4.5319,-4.5499,-4.5549,-4.5688,-4.5843,-4.5971,-4.6057,-4.6246,-4.6295,-4.6431,-4.6617,-4.672,-4.6954,-4.7002,-4.7233,-4.7244,-4.7179,-4.7185,-4.7293,-4.728,-4.7634,-4.7684,-4.7436,-4.7438,-4.744,0,-4.5123,-4.5259,-4.5454,-4.5556,-4.565,-4.5815,-4.5926,-4.6021,-4.6135,-4.6327,-4.6432,-4.6619,-4.6774,-4.7069,-4.7189,-4.7368,-4.7381,-4.7493,-4.7408,-4.7381,-4.7379,-4.7368,-4.7382,-4.7506,-4.7508,-4.751,-4.7512,0,-4.5356,-4.5401,-4.5559,-4.5736,-4.5868,-4.6012,-4.6155,-4.6237,-4.6355,-4.6482,-4.6672,-4.6792,-4.703,-4.7216,-4.7405,-4.7502,-4.7526,-4.7538,-4.7574,-4.755,-4.7505,-4.7528,-4.7215,-4.7528,-4.7527,-4.7526,-4.7525,-4.7524,-4.5508,-4.5631,-4.5787,-4.5962,-4.608,-4.6214,-4.6342,-4.6446,-4.6605,-4.6804,-4.6852,-4.7051,-4.7208,-4.7465,-4.7567,-4.7725,-4.7704,-4.7756,-4.7769,-4.7779,-4.7781,-4.7483,-4.776,-4.776,-4.776,-4.7759,-4.7759,0,-4.5741,-4.5844,-4.6005,-4.6204,-4.6342,-4.6355,-4.6515,-4.663,-4.6804,-4.6948,-4.71,-4.7318,-4.7499,-4.7635,-4.782,-4.792,-4.7936,-4.7965,-4.7957,-4.7978,-4.7791,-4.774,-4.7949,-4.7949,-4.7949,-4.7949,-4.7949,-4.7949,-4.5878,-4.6086,-4.615,-4.6418,-4.6521,-4.6715,-4.6805,-4.6929,-4.7044,-4.7285,-4.7435,-4.7523,-4.7665,-4.7861,-4.8028,-4.8063,-4.8128,-4.8155,-4.8191,-4.8013,-4.7992,-4.7972,-4.7924,-4.8169,-4.817,-4.8366,-4.8368,-4.8369]}]]